San Luis Valley Regional Bergman Field
KALS : now visible

Airfield :











YOU CAN JOIN US ON...

 
LOGIN :

Register | Disclaimer

   EN    FR    IT 

 









Legend :    VFR   Marginal VFR   IFR   Intensive IFR   Very Intensive IFR
Visi :
Ceiling :
>= 8 km
>= 3000ft
5 to 8 km
1000 to 3000 ft
1500m to 5 km
500 to 1000 ft
800 to 1500m
200 to 500 ft
< 800m
< 200 ft
Symbols :   Thunderstorms  Fog  Heavy snow  Heavy precipitations  Wind > 20 kt






- Airport Elevation : 7539 ft


KALS - San Luis Valley Regional Bergman Field

CURRENT METAR :
  • 081852Z AUTO 10SM CLR 18/M14 A3019 RMK AO2 SLP171 T01781139

EXPIRED METARs :
  • 081752Z AUTO 35004KT 10SM CLR 17/M13 A3021 RMK AO2 SLP184 T01671133 10167 21056 58004
  • 081652Z AUTO 00000KT 10SM CLR 14/M14 A3023 RMK AO2 SLP189 T01391139

TAF KALS
Valid from the 08 at 18:00 until the 09 at 18:00 UTC


081734Z 0818/0918 21009KT P6SM SKC
FM090200 15007KT P6SM FEW120
FM091700 19010G20KT P6SM SCT120



MET'MAP, your aeronautical weather chart ! - Copyright ORBIFLY December 2007 - Disclaimer

ORBIFLY MET'MAP TEAM :

Programming & Development : Alexandra Zaïnal
Concept & original design : Baudouin d'Aumeries
Assistance for programming : Marc-Olivier Méhu
Technical & hardware support : Manuel Goepfert

Contact : metmap@orbifly.com




SOURCES & CREDITS :

   NOAA       Earth
Advisory